Time,TemperatureF,DewpointF,PressureIn,WindDirection,WindDirectionDegrees,WindSpeedMPH,WindSpeedGustMPH,Humidity,HourlyPrecipIn,Conditions,Clouds,dailyrainin,SoftwareType,DateUTC
2013-11-22 00:00:00,44.8,42.9,30.65,North,0,10.0,18.0,93,0.01,,---,0.00,VWS V14.01,2013-11-22 06:00:00,
2013-11-22 00:10:00,44.2,42.3,30.65,North,0,7.0,13.0,93,0.01,,---,0.00,VWS V14.01,2013-11-22 06:10:00,
2013-11-22 00:20:00,43.9,41.2,30.66,North,0,9.0,15.0,90,0.01,,---,0.00,VWS V14.01,2013-11-22 06:20:00,
2013-11-22 00:30:00,43.5,41.6,30.65,North,0,9.0,17.0,93,0.00,,---,0.00,VWS V14.01,2013-11-22 06:30:00,
2013-11-22 00:40:00,42.3,40.4,30.65,NNW,338,10.0,17.0,93,0.00,,---,0.00,VWS V14.01,2013-11-22 06:40:00,
2013-11-22 00:50:00,41.6,39.7,30.67,North,0,7.0,16.0,93,0.00,,---,0.00,VWS V14.01,2013-11-22 06:50:00,
2013-11-22 01:00:00,41.1,39.2,30.69,North,0,8.0,16.0,93,0.00,,---,0.00,VWS V14.01,2013-11-22 07:00:00,
2013-11-22 01:10:00,40.1,38.2,30.69,North,0,10.0,18.0,93,0.00,,---,0.00,VWS V14.01,2013-11-22 07:10:00,
2013-11-22 01:20:00,39.6,37.8,30.70,North,0,6.0,12.0,93,0.00,,---,0.00,VWS V14.01,2013-11-22 07:20:00,
2013-11-22 01:30:00,39.2,37.3,30.71,NNE,22,8.0,16.0,93,0.00,,---,0.00,VWS V14.01,2013-11-22 07:30:00,
2013-11-22 01:40:00,38.8,37.0,30.71,NNE,22,7.0,14.0,93,0.00,,---,0.00,VWS V14.01,2013-11-22 07:40:00,
2013-11-22 01:50:00,38.5,36.7,30.71,North,0,7.0,12.0,93,0.00,,---,0.00,VWS V14.01,2013-11-22 07:50:00,
2013-11-22 02:00:00,38.2,36.4,30.72,North,0,6.0,13.0,93,0.00,,---,0.00,VWS V14.01,2013-11-22 08:00:00,
2013-11-22 02:10:00,37.8,36.0,30.72,NNE,22,6.0,15.0,93,0.00,,---,0.00,VWS V14.01,2013-11-22 08:10:00,
2013-11-22 02:20:00,37.2,35.4,30.73,NNE,22,8.0,17.0,93,0.00,,---,0.00,VWS V14.01,2013-11-22 08:20:00,
2013-11-22 02:30:00,36.9,35.1,30.73,NE,45,7.0,16.0,93,0.00,,---,0.00,VWS V14.01,2013-11-22 08:30:00,
2013-11-22 02:40:00,36.9,35.1,30.73,NNE,22,5.0,11.0,93,0.00,,---,0.00,VWS V14.01,2013-11-22 08:40:00,
2013-11-22 02:50:00,36.8,35.0,30.74,NNE,22,4.0,11.0,93,0.00,,---,0.00,VWS V14.01,2013-11-22 08:50:00,
2013-11-22 03:00:00,36.6,34.8,30.75,North,0,5.0,13.0,93,0.00,,---,0.00,VWS V14.01,2013-11-22 09:00:00,
2013-11-22 03:10:00,36.5,34.7,30.75,NNE,22,7.0,14.0,93,0.00,,---,0.00,VWS V14.01,2013-11-22 09:10:00,
2013-11-22 03:20:00,36.3,34.5,30.75,NNE,22,5.0,12.0,93,0.00,,---,0.00,VWS V14.01,2013-11-22 09:20:00,
2013-11-22 03:30:00,36.2,34.4,30.75,NNE,22,5.0,11.0,93,0.00,,---,0.00,VWS V14.01,2013-11-22 09:30:00,
2013-11-22 03:40:00,36.2,34.4,30.75,NNE,22,6.0,14.0,93,0.00,,---,0.00,VWS V14.01,2013-11-22 09:40:00,
2013-11-22 03:50:00,36.0,34.2,30.76,NE,45,4.0,10.0,93,0.00,,---,0.00,VWS V14.01,2013-11-22 09:50:00,
2013-11-22 04:00:00,35.9,34.1,30.76,North,0,4.0,11.0,93,0.00,,---,0.00,VWS V14.01,2013-11-22 10:00:00,
2013-11-22 04:10:00,35.6,33.8,30.76,NNE,22,5.0,9.0,93,0.00,,---,0.00,VWS V14.01,2013-11-22 10:10:00,
2013-11-22 04:20:00,35.5,33.7,30.76,NNE,22,6.0,15.0,93,0.00,,---,0.00,VWS V14.01,2013-11-22 10:20:00,
2013-11-22 04:30:00,35.3,33.5,30.77,NE,45,4.0,9.0,93,0.00,,---,0.00,VWS V14.01,2013-11-22 10:30:00,
2013-11-22 04:40:00,35.2,33.4,30.77,ENE,68,4.0,10.0,93,0.00,,---,0.00,VWS V14.01,2013-11-22 10:40:00,
2013-11-22 04:50:00,35.2,33.4,30.78,NE,45,4.0,8.0,93,0.00,,---,0.00,VWS V14.01,2013-11-22 10:50:00,
2013-11-22 05:00:00,34.9,33.1,30.78,NNE,22,7.0,14.0,93,0.00,,---,0.00,VWS V14.01,2013-11-22 11:00:00,
2013-11-22 05:10:00,34.6,32.8,30.78,NNE,22,6.0,13.0,93,0.00,,---,0.00,VWS V14.01,2013-11-22 11:10:00,
2013-11-22 05:20:00,34.3,32.5,30.79,NNE,22,6.0,14.0,93,0.00,,---,0.00,VWS V14.01,2013-11-22 11:20:00,
2013-11-22 05:30:00,34.0,32.2,30.80,North,0,6.0,15.0,93,0.00,,---,0.00,VWS V14.01,2013-11-22 11:30:00,
2013-11-22 05:40:00,33.8,32.0,30.80,NE,45,6.0,13.0,93,0.00,,---,0.00,VWS V14.01,2013-11-22 11:40:00,
2013-11-22 05:50:00,33.8,32.0,30.81,North,0,5.0,12.0,93,0.00,,---,0.00,VWS V14.01,2013-11-22 11:50:00,
2013-11-22 06:00:00,33.7,31.9,30.81,NNE,22,5.0,12.0,93,0.00,,---,0.00,VWS V14.01,2013-11-22 12:00:00,
2013-11-22 06:10:00,33.5,31.7,30.81,NNE,22,5.0,13.0,93,0.00,,---,0.00,VWS V14.01,2013-11-22 12:10:00,
2013-11-22 06:20:00,33.5,31.7,30.82,NE,45,5.0,12.0,93,0.00,,---,0.00,VWS V14.01,2013-11-22 12:20:00,
2013-11-22 06:30:00,33.5,31.7,30.82,NNE,22,6.0,16.0,93,0.00,,---,0.00,VWS V14.01,2013-11-22 12:30:00,
2013-11-22 06:40:00,33.4,31.6,30.82,NE,45,6.0,11.0,93,0.00,,---,0.00,VWS V14.01,2013-11-22 12:40:00,
2013-11-22 06:50:00,33.4,31.6,30.83,NNE,22,6.0,12.0,93,0.00,,---,0.00,VWS V14.01,2013-11-22 12:50:00,
2013-11-22 07:00:00,33.4,31.6,30.83,North,0,6.0,11.0,93,0.00,,---,0.00,VWS V14.01,2013-11-22 13:00:00,
2013-11-22 07:10:00,33.2,31.4,30.83,NE,45,5.0,12.0,93,0.00,,---,0.00,VWS V14.01,2013-11-22 13:10:00,
2013-11-22 07:20:00,33.2,31.1,30.84,NE,45,7.0,15.0,92,0.00,,---,0.00,VWS V14.01,2013-11-22 13:20:00,
2013-11-22 07:30:00,33.2,31.1,30.85,NE,45,6.0,14.0,92,0.00,,---,0.00,VWS V14.01,2013-11-22 13:30:00,
2013-11-22 07:40:00,33.2,31.1,30.85,NE,45,6.0,12.0,92,0.00,,---,0.00,VWS V14.01,2013-11-22 13:40:00,
2013-11-22 07:50:00,33.1,31.0,30.86,NNE,22,7.0,14.0,92,0.00,,---,0.00,VWS V14.01,2013-11-22 13:50:00,
2013-11-22 08:00:00,32.9,30.8,30.87,NE,45,7.0,15.0,92,0.00,,---,0.00,VWS V14.01,2013-11-22 14:00:00,
2013-11-22 08:10:00,32.8,30.7,30.87,NE,45,6.0,14.0,92,0.00,,---,0.00,VWS V14.01,2013-11-22 14:10:00,
2013-11-22 08:20:00,32.8,30.7,30.88,NE,45,6.0,15.0,92,0.00,,---,0.00,VWS V14.01,2013-11-22 14:20:00,
2013-11-22 08:30:00,32.8,30.7,30.88,NE,45,6.0,14.0,92,0.00,,---,0.00,VWS V14.01,2013-11-22 14:30:00,
2013-11-22 08:40:00,32.9,30.8,30.88,NE,45,6.0,13.0,92,0.00,,---,0.00,VWS V14.01,2013-11-22 14:40:00,
2013-11-22 08:50:00,32.9,30.8,30.89,NE,45,6.0,12.0,92,0.00,,---,0.00,VWS V14.01,2013-11-22 14:50:00,
2013-11-22 09:00:00,32.8,30.7,30.89,NE,45,7.0,14.0,92,0.00,,---,0.00,VWS V14.01,2013-11-22 15:00:00,
2013-11-22 09:10:00,32.8,30.7,30.89,NE,45,7.0,14.0,92,0.00,,---,0.00,VWS V14.01,2013-11-22 15:10:00,
2013-11-22 09:20:00,32.7,30.6,30.90,NE,45,8.0,16.0,92,0.00,,---,0.00,VWS V14.01,2013-11-22 15:20:00,
2013-11-22 09:30:00,32.5,30.4,30.90,NE,45,7.0,16.0,92,0.00,,---,0.00,VWS V14.01,2013-11-22 15:30:00,
2013-11-22 09:40:00,32.5,30.4,30.90,NNE,22,6.0,13.0,92,0.00,,---,0.00,VWS V14.01,2013-11-22 15:40:00,
2013-11-22 09:50:00,32.7,30.6,30.91,NE,45,6.0,13.0,92,0.00,,---,0.00,VWS V14.01,2013-11-22 15:50:00,
2013-11-22 10:00:00,32.8,30.7,30.91,NE,45,6.0,14.0,92,0.00,,---,0.00,VWS V14.01,2013-11-22 16:00:00,
2013-11-22 10:10:00,32.7,30.6,30.91,NE,45,7.0,14.0,92,0.00,,---,0.00,VWS V14.01,2013-11-22 16:10:00,
2013-11-22 10:20:00,32.8,30.7,30.90,NE,45,7.0,14.0,92,0.00,,---,0.00,VWS V14.01,2013-11-22 16:20:00,
2013-11-22 10:30:00,33.1,31.0,30.91,ENE,68,7.0,13.0,92,0.00,,---,0.00,VWS V14.01,2013-11-22 16:30:00,
2013-11-22 10:40:00,33.4,31.3,30.91,ENE,68,7.0,14.0,92,0.00,,---,0.00,VWS V14.01,2013-11-22 16:40:00,
2013-11-22 10:50:00,33.2,31.1,30.92,NE,45,7.0,13.0,92,0.00,,---,0.00,VWS V14.01,2013-11-22 16:50:00,
2013-11-22 11:00:00,33.2,31.1,30.91,NE,45,7.0,14.0,92,0.00,,---,0.00,VWS V14.01,2013-11-22 17:00:00,
2013-11-22 11:10:00,33.2,31.1,30.91,NE,45,6.0,12.0,92,0.00,,---,0.00,VWS V14.01,2013-11-22 17:10:00,
2013-11-22 11:20:00,33.2,31.1,30.91,NE,45,6.0,12.0,92,0.00,,---,0.00,VWS V14.01,2013-11-22 17:20:00,
2013-11-22 11:30:00,33.2,31.1,30.91,NE,45,5.0,12.0,92,0.00,,---,0.00,VWS V14.01,2013-11-22 17:30:00,
2013-11-22 11:40:00,33.2,31.1,30.91,NE,45,7.0,13.0,92,0.00,,---,0.00,VWS V14.01,2013-11-22 17:40:00,
2013-11-22 11:50:00,33.1,30.8,30.90,NE,45,7.0,13.0,91,0.00,,---,0.00,VWS V14.01,2013-11-22 17:50:00,
2013-11-22 12:00:00,33.1,31.0,30.90,NE,45,7.0,14.0,92,0.00,,---,0.00,VWS V14.01,2013-11-22 18:00:00,
2013-11-22 12:10:00,33.1,30.8,30.90,NNE,22,6.0,13.0,91,0.00,,---,0.00,VWS V14.01,2013-11-22 18:10:00,
2013-11-22 12:20:00,32.9,30.6,30.91,NNE,22,7.0,14.0,91,0.00,,---,0.00,VWS V14.01,2013-11-22 18:20:00,
2013-11-22 12:30:00,32.9,30.6,30.91,NE,45,7.0,16.0,91,0.00,,---,0.00,VWS V14.01,2013-11-22 18:30:00,
2013-11-22 12:40:00,32.9,30.6,30.91,NE,45,5.0,12.0,91,0.00,,---,0.00,VWS V14.01,2013-11-22 18:40:00,
2013-11-22 12:50:00,33.5,31.4,30.89,ENE,68,6.0,13.0,92,0.00,,---,0.00,VWS V14.01,2013-11-22 18:50:00,
2013-11-22 13:00:00,34.1,31.8,30.88,NE,45,6.0,13.0,91,0.00,,---,0.00,VWS V14.01,2013-11-22 19:00:00,
2013-11-22 13:10:00,34.3,32.0,30.88,ENE,68,8.0,14.0,91,0.00,,---,0.00,VWS V14.01,2013-11-22 19:10:00,
2013-11-22 13:20:00,34.3,32.0,30.89,ENE,68,5.0,12.0,91,0.00,,---,0.00,VWS V14.01,2013-11-22 19:20:00,
2013-11-22 13:30:00,34.1,31.8,30.90,NE,45,5.0,13.0,91,0.00,,---,0.00,VWS V14.01,2013-11-22 19:30:00,
2013-11-22 13:40:00,34.3,32.0,30.90,NE,45,5.0,11.0,91,0.00,,---,0.00,VWS V14.01,2013-11-22 19:40:00,
2013-11-22 13:50:00,34.3,31.7,30.90,NE,45,5.0,10.0,90,0.00,,---,0.00,VWS V14.01,2013-11-22 19:50:00,
2013-11-22 14:00:00,34.3,31.7,30.90,NE,45,5.0,11.0,90,0.00,,---,0.00,VWS V14.01,2013-11-22 20:00:00,
2013-11-22 14:10:00,34.3,31.7,30.90,NE,45,5.0,13.0,90,0.00,,---,0.00,VWS V14.01,2013-11-22 20:10:00,
2013-11-22 14:20:00,34.3,31.7,30.90,NE,45,6.0,15.0,90,0.00,,---,0.00,VWS V14.01,2013-11-22 20:20:00,
2013-11-22 14:30:00,34.3,31.7,30.90,NE,45,6.0,14.0,90,0.00,,---,0.00,VWS V14.01,2013-11-22 20:30:00,
2013-11-22 14:40:00,34.4,31.8,30.90,NE,45,6.0,13.0,90,0.00,,---,0.00,VWS V14.01,2013-11-22 20:40:00,
2013-11-22 14:50:00,34.3,31.4,30.90,NE,45,5.0,10.0,89,0.00,,---,0.00,VWS V14.01,2013-11-22 20:50:00,
2013-11-22 15:00:00,34.0,31.1,30.92,NNE,22,6.0,13.0,89,0.00,,---,0.00,VWS V14.01,2013-11-22 21:00:00,
2013-11-22 15:10:00,33.8,30.9,30.92,NE,45,6.0,13.0,89,0.00,,---,0.00,VWS V14.01,2013-11-22 21:10:00,
2013-11-22 15:20:00,33.7,30.8,30.93,NE,45,6.0,15.0,89,0.00,,---,0.00,VWS V14.01,2013-11-22 21:20:00,
2013-11-22 15:30:00,33.7,30.8,30.93,NE,45,4.0,10.0,89,0.00,,---,0.00,VWS V14.01,2013-11-22 21:30:00,
2013-11-22 15:40:00,33.8,30.6,30.93,NNE,22,4.0,10.0,88,0.00,,---,0.00,VWS V14.01,2013-11-22 21:40:00,
2013-11-22 15:50:00,33.8,30.6,30.93,NE,45,5.0,11.0,88,0.00,,---,0.00,VWS V14.01,2013-11-22 21:50:00,
2013-11-22 16:00:00,33.8,30.6,30.93,NNE,22,6.0,12.0,88,0.00,,---,0.00,VWS V14.01,2013-11-22 22:00:00,
2013-11-22 16:10:00,33.8,30.6,30.93,NE,45,5.0,12.0,88,0.00,,---,0.00,VWS V14.01,2013-11-22 22:10:00,
2013-11-22 16:20:00,33.5,30.6,30.91,NE,50,7.0,12.0,89,0.94,,---,0.01,VWS V14.01,2013-11-22 22:20:00,
2013-11-22 16:30:00,33.5,30.6,30.92,NE,55,11.0,12.0,89,0.01,,---,0.01,VWS V14.01,2013-11-22 22:30:00,
2013-11-22 16:31:00,33.8,30.6,30.93,NE,45,5.0,12.0,88,0.00,,---,0.00,VWS V14.01,2013-11-22 22:31:00,
2013-11-22 16:36:00,33.7,30.5,30.92,ENE,68,7.0,15.0,88,0.93,,---,0.00,VWS V14.01,2013-11-22 22:36:00,
2013-11-22 16:40:00,33.7,30.5,30.92,NE,51,4.0,15.0,88,0.93,,---,0.00,VWS V14.01,2013-11-22 22:40:00,
2013-11-22 16:41:00,33.7,30.5,30.92,NE,42,3.0,5.0,88,0.93,,---,0.00,VWS V14.01,2013-11-22 22:41:00,
2013-11-22 16:46:00,33.7,30.5,30.92,NE,43,2.0,5.0,88,0.93,,---,0.00,VWS V14.01,2013-11-22 22:46:00,
2013-11-22 16:50:00,33.7,30.5,30.92,ENE,65,4.0,7.0,88,0.93,,---,0.00,VWS V14.01,2013-11-22 22:50:00,
2013-11-22 16:51:00,33.7,30.5,30.92,East,89,6.0,11.0,88,0.93,,---,0.00,VWS V14.01,2013-11-22 22:51:00,
2013-11-22 16:56:00,33.7,30.8,30.92,ENE,61,10.0,11.0,89,0.93,,---,0.00,VWS V14.01,2013-11-22 22:56:00,
2013-11-22 17:01:00,33.7,30.8,30.91,NE,55,6.0,11.0,89,0.93,,---,0.00,VWS V14.01,2013-11-22 23:01:00,
2013-11-22 17:06:00,33.5,30.6,30.91,ENE,59,4.0,11.0,89,0.93,,---,0.00,VWS V14.01,2013-11-22 23:06:00,
2013-11-22 17:10:00,33.5,30.6,30.91,East,90,7.0,13.0,89,0.93,,---,0.00,VWS V14.01,2013-11-22 23:10:00,
2013-11-22 17:11:00,33.5,30.6,30.91,NE,40,5.0,10.0,89,0.93,,---,0.00,VWS V14.01,2013-11-22 23:11:00,
2013-11-22 17:16:00,33.5,30.6,30.91,NE,46,12.0,12.0,89,0.94,,---,0.01,VWS V14.01,2013-11-22 23:16:00,
2013-11-22 17:20:00,33.5,30.6,30.91,NE,50,7.0,12.0,89,0.94,,---,0.01,VWS V14.01,2013-11-22 23:20:00,
2013-11-22 17:21:00,33.5,30.6,30.91,NE,47,6.0,10.0,89,0.01,,---,0.01,VWS V14.01,2013-11-22 23:21:00,
2013-11-22 17:26:00,33.5,30.6,30.91,ENE,73,5.0,11.0,89,0.01,,---,0.01,VWS V14.01,2013-11-22 23:26:00,
2013-11-22 17:30:00,33.5,30.6,30.92,NE,55,11.0,12.0,89,0.01,,---,0.01,VWS V14.01,2013-11-22 23:30:00,
2013-11-22 17:31:00,33.5,30.6,30.92,ENE,67,6.0,14.0,89,0.01,,---,0.01,VWS V14.01,2013-11-22 23:31:00,
2013-11-22 17:36:00,33.4,30.5,30.92,NE,46,6.0,14.0,89,0.01,,---,0.01,VWS V14.01,2013-11-22 23:36:00,
2013-11-22 17:40:00,33.4,30.5,30.92,NE,55,5.0,14.0,89,0.01,,---,0.01,VWS V14.01,2013-11-22 23:40:00,
2013-11-22 17:41:00,33.4,30.5,30.92,NE,49,10.0,11.0,89,0.01,,---,0.01,VWS V14.01,2013-11-22 23:41:00,
2013-11-22 17:46:00,33.4,30.5,30.92,ENE,63,7.0,14.0,89,0.01,,---,0.01,VWS V14.01,2013-11-22 23:46:00,
2013-11-22 17:50:00,33.4,30.5,30.92,ENE,58,9.0,14.0,89,0.01,,---,0.01,VWS V14.01,2013-11-22 23:50:00,
2013-11-22 17:51:00,33.4,30.5,30.92,ENE,63,6.0,13.0,89,0.01,,---,0.01,VWS V14.01,2013-11-22 23:51:00,
2013-11-22 17:56:00,33.2,30.3,30.92,NE,49,8.0,13.0,89,0.01,,---,0.01,VWS V14.01,2013-11-22 23:56:00,
2013-11-22 18:01:00,33.2,30.3,30.92,ENE,63,6.0,13.0,89,0.01,,---,0.01,VWS V14.01,2013-11-23 00:01:00,
2013-11-22 18:06:00,33.2,30.3,30.92,ENE,63,6.0,13.0,89,0.01,,---,0.01,VWS V14.01,2013-11-23 00:06:00,
2013-11-22 18:10:00,33.2,30.3,30.92,ENE,64,8.0,14.0,89,0.01,,---,0.01,VWS V14.01,2013-11-23 00:10:00,
2013-11-22 18:11:00,33.1,30.2,30.92,ENE,67,9.0,9.0,89,0.01,,---,0.01,VWS V14.01,2013-11-23 00:11:00,
2013-11-22 18:16:00,33.1,30.2,30.93,NE,38,4.0,11.0,89,0.01,,---,0.01,VWS V14.01,2013-11-23 00:16:00,
2013-11-22 18:20:00,33.1,30.2,30.93,ENE,67,3.0,11.0,89,0.01,,---,0.01,VWS V14.01,2013-11-23 00:20:00,
2013-11-22 18:21:00,33.1,30.2,30.93,NE,55,6.0,7.0,89,0.00,,---,0.01,VWS V14.01,2013-11-23 00:21:00,
2013-11-22 18:26:00,33.1,30.2,30.93,ENE,57,4.0,11.0,89,0.00,,---,0.01,VWS V14.01,2013-11-23 00:26:00,
2013-11-22 18:30:00,33.1,30.2,30.93,NNE,31,10.0,16.0,89,0.00,,---,0.01,VWS V14.01,2013-11-23 00:30:00,
2013-11-22 18:31:00,33.1,30.2,30.93,NE,46,8.0,14.0,89,0.00,,---,0.01,VWS V14.01,2013-11-23 00:31:00,
2013-11-22 18:36:00,33.1,30.2,30.93,NE,46,10.0,14.0,89,0.00,,---,0.01,VWS V14.01,2013-11-23 00:36:00,
2013-11-22 18:40:00,33.1,30.2,30.93,ENE,67,5.0,14.0,89,0.00,,---,0.01,VWS V14.01,2013-11-23 00:40:00,
2013-11-22 18:41:00,33.1,30.2,30.93,NE,44,11.0,11.0,89,0.00,,---,0.01,VWS V14.01,2013-11-23 00:41:00,
2013-11-22 18:46:00,33.1,30.2,30.92,NE,45,2.0,11.0,89,0.00,,---,0.01,VWS V14.01,2013-11-23 00:46:00,
2013-11-22 18:50:00,33.1,30.2,30.92,NE,46,4.0,11.0,89,0.00,,---,0.01,VWS V14.01,2013-11-23 00:50:00,
2013-11-22 18:51:00,33.1,30.2,30.92,NNE,33,6.0,10.0,89,0.00,,---,0.01,VWS V14.01,2013-11-23 00:51:00,
2013-11-22 18:56:00,33.1,30.2,30.92,ENE,74,5.0,12.0,89,0.00,,---,0.01,VWS V14.01,2013-11-23 00:56:00,
2013-11-22 19:01:00,33.1,30.2,30.93,NE,36,6.0,12.0,89,0.00,,---,0.01,VWS V14.01,2013-11-23 01:01:00,
2013-11-22 19:06:00,33.1,30.2,30.93,NE,36,6.0,12.0,89,0.00,,---,0.01,VWS V14.01,2013-11-23 01:06:00,
2013-11-22 19:10:00,32.9,30.0,30.93,NNE,15,5.0,12.0,89,0.00,,---,0.01,VWS V14.01,2013-11-23 01:10:00,
2013-11-22 19:11:00,32.9,30.0,30.93,ENE,66,5.0,6.0,89,0.00,,---,0.01,VWS V14.01,2013-11-23 01:11:00,
2013-11-22 19:16:00,32.8,29.9,30.93,NE,50,4.0,11.0,89,0.00,,---,0.01,VWS V14.01,2013-11-23 01:16:00,
2013-11-22 19:20:00,32.8,29.9,30.93,NE,51,10.0,13.0,89,0.00,,---,0.01,VWS V14.01,2013-11-23 01:20:00,
2013-11-22 19:21:00,32.7,29.8,30.93,ENE,61,8.0,12.0,89,0.00,,---,0.01,VWS V14.01,2013-11-23 01:21:00,
2013-11-22 19:26:00,32.5,29.6,30.93,ENE,75,9.0,13.0,89,0.00,,---,0.01,VWS V14.01,2013-11-23 01:26:00,
2013-11-22 19:30:00,32.5,29.6,30.92,NE,42,5.0,13.0,89,0.00,,---,0.01,VWS V14.01,2013-11-23 01:30:00,
2013-11-22 19:31:00,32.5,29.6,30.92,ENE,57,5.0,6.0,89,0.00,,---,0.01,VWS V14.01,2013-11-23 01:31:00,
2013-11-22 19:36:00,32.5,29.6,30.92,ENE,66,2.0,7.0,89,0.00,,---,0.01,VWS V14.01,2013-11-23 01:36:00,
2013-11-22 19:40:00,32.5,29.6,30.92,NE,40,5.0,7.0,89,0.00,,---,0.01,VWS V14.01,2013-11-23 01:40:00,
2013-11-22 19:41:00,32.5,29.6,30.92,NE,50,9.0,9.0,89,0.00,,---,0.01,VWS V14.01,2013-11-23 01:41:00,
2013-11-22 19:46:00,32.5,29.6,30.93,ENE,61,7.0,11.0,89,0.00,,---,0.01,VWS V14.01,2013-11-23 01:46:00,
2013-11-22 19:50:00,32.5,29.6,30.93,NE,44,5.0,11.0,89,0.00,,---,0.01,VWS V14.01,2013-11-23 01:50:00,
2013-11-22 19:51:00,32.5,29.6,30.93,NE,46,6.0,6.0,89,0.00,,---,0.01,VWS V14.01,2013-11-23 01:51:00,
2013-11-22 19:56:00,32.5,29.6,30.93,NE,47,2.0,7.0,89,0.00,,---,0.01,VWS V14.01,2013-11-23 01:56:00,
2013-11-22 20:00:00,32.4,29.5,30.94,NE,46,3.0,10.0,89,0.00,,---,0.01,VWS V14.01,2013-11-23 02:00:00,
2013-11-22 20:01:00,32.5,29.6,30.93,NE,46,8.0,8.0,89,0.00,,---,0.01,VWS V14.01,2013-11-23 02:01:00,
2013-11-22 20:06:00,32.5,29.6,30.93,NE,46,8.0,8.0,89,0.00,,---,0.01,VWS V14.01,2013-11-23 02:06:00,
2013-11-22 20:10:00,32.5,29.6,30.93,NE,50,4.0,10.0,89,0.00,,---,0.01,VWS V14.01,2013-11-23 02:10:00,
2013-11-22 20:11:00,32.5,29.6,30.93,NE,34,4.0,7.0,89,0.00,,---,0.01,VWS V14.01,2013-11-23 02:11:00,
2013-11-22 20:16:00,32.5,29.6,30.92,NE,42,5.0,10.0,89,0.00,,---,0.01,VWS V14.01,2013-11-23 02:16:00,
2013-11-22 20:20:00,32.5,29.6,30.92,ENE,76,5.0,10.0,89,0.00,,---,0.01,VWS V14.01,2013-11-23 02:20:00,
2013-11-22 20:21:00,32.5,29.6,30.92,ENE,77,8.0,10.0,89,0.00,,---,0.01,VWS V14.01,2013-11-23 02:21:00,
2013-11-22 20:26:00,32.5,29.6,30.92,NE,52,6.0,10.0,89,0.00,,---,0.01,VWS V14.01,2013-11-23 02:26:00,
2013-11-22 20:30:00,32.5,29.6,30.92,NE,54,3.0,11.0,89,0.00,,---,0.01,VWS V14.01,2013-11-23 02:30:00,
2013-11-22 20:31:00,32.5,29.6,30.92,NE,55,6.0,6.0,89,0.00,,---,0.01,VWS V14.01,2013-11-23 02:31:00,
2013-11-22 20:36:00,32.5,29.6,30.92,NE,43,4.0,10.0,89,0.00,,---,0.01,VWS V14.01,2013-11-23 02:36:00,
2013-11-22 20:40:00,32.5,29.6,30.92,NE,54,6.0,7.0,89,0.00,,---,0.01,VWS V14.01,2013-11-23 02:40:00,
2013-11-22 20:45:00,32.5,29.6,30.93,ENE,61,4.0,13.0,89,0.00,,---,0.01,VWS V14.01,2013-11-23 02:45:00,
2013-11-22 20:50:00,32.5,29.6,30.93,NE,53,7.0,10.0,89,0.00,,---,0.01,VWS V14.01,2013-11-23 02:50:00,
2013-11-22 20:55:00,32.4,29.5,30.93,NE,44,6.0,10.0,89,0.00,,---,0.01,VWS V14.01,2013-11-23 02:55:00,
2013-11-22 21:00:00,32.4,29.5,30.94,NNE,28,3.0,6.0,89,0.00,,---,0.01,VWS V14.01,2013-11-23 03:00:00,
2013-11-22 21:01:00,32.4,29.5,30.94,NNE,30,4.0,6.0,89,0.00,,---,0.01,VWS V14.01,2013-11-23 03:01:00,
2013-11-22 21:06:00,32.5,29.6,30.94,NE,46,0.0,9.0,89,0.00,,---,0.01,VWS V14.01,2013-11-23 03:06:00,
2013-11-22 21:10:00,32.5,29.6,30.94,NE,36,6.0,9.0,89,0.00,,---,0.01,VWS V14.01,2013-11-23 03:10:00,
2013-11-22 21:11:00,32.4,29.5,30.94,NE,46,3.0,9.0,89,0.00,,---,0.01,VWS V14.01,2013-11-23 03:11:00,
2013-11-22 21:16:00,32.4,29.5,30.94,ENE,71,4.0,9.0,89,0.00,,---,0.01,VWS V14.01,2013-11-23 03:16:00,
2013-11-22 21:20:00,32.4,29.5,30.94,East,81,1.0,9.0,89,0.00,,---,0.01,VWS V14.01,2013-11-23 03:20:00,
2013-11-22 21:21:00,32.4,29.5,30.94,ENE,60,4.0,6.0,89,0.00,,---,0.01,VWS V14.01,2013-11-23 03:21:00,
2013-11-22 21:26:00,32.4,29.5,30.94,ENE,57,4.0,6.0,89,0.00,,---,0.01,VWS V14.01,2013-11-23 03:26:00,
2013-11-22 21:30:00,32.4,29.5,30.94,NE,46,6.0,7.0,89,0.00,,---,0.01,VWS V14.01,2013-11-23 03:30:00,
2013-11-22 21:31:00,32.4,29.5,30.94,NNE,26,3.0,6.0,89,0.00,,---,0.01,VWS V14.01,2013-11-23 03:31:00,
2013-11-22 21:36:00,32.4,29.5,30.94,ENE,64,5.0,7.0,89,0.00,,---,0.01,VWS V14.01,2013-11-23 03:36:00,
2013-11-22 21:40:00,32.4,29.5,30.94,ENE,76,4.0,10.0,89,0.00,,---,0.01,VWS V14.01,2013-11-23 03:40:00,
2013-11-22 21:41:00,32.4,29.5,30.94,ENE,69,7.0,7.0,89,0.00,,---,0.01,VWS V14.01,2013-11-23 03:41:00,
2013-11-22 21:46:00,32.4,29.5,30.93,NE,47,3.0,9.0,89,0.00,,---,0.01,VWS V14.01,2013-11-23 03:46:00,
2013-11-22 21:50:00,32.4,29.5,30.93,NE,47,5.0,9.0,89,0.00,,---,0.01,VWS V14.01,2013-11-23 03:50:00,
2013-11-22 21:51:00,32.5,29.6,30.93,NE,35,3.0,6.0,89,0.00,,---,0.01,VWS V14.01,2013-11-23 03:51:00,
2013-11-22 21:56:00,32.5,29.6,30.93,NE,40,4.0,7.0,89,0.00,,---,0.01,VWS V14.01,2013-11-23 03:56:00,
2013-11-22 22:00:00,32.5,29.6,30.94,ENE,59,4.0,8.0,89,0.00,,---,0.01,VWS V14.01,2013-11-23 04:00:00,
2013-11-22 22:01:00,32.5,29.6,30.94,NE,46,6.0,6.0,89,0.00,,---,0.01,VWS V14.01,2013-11-23 04:01:00,
2013-11-22 22:06:00,32.5,29.6,30.94,NE,38,1.0,9.0,89,0.00,,---,0.01,VWS V14.01,2013-11-23 04:06:00,
2013-11-22 22:10:00,32.5,29.6,30.94,NE,45,7.0,10.0,89,0.00,,---,0.01,VWS V14.01,2013-11-23 04:10:00,
2013-11-22 22:11:00,32.5,29.6,30.94,NE,38,4.0,7.0,89,0.00,,---,0.01,VWS V14.01,2013-11-23 04:11:00,
2013-11-22 22:16:00,32.5,29.6,30.94,NE,54,6.0,8.0,89,0.00,,---,0.01,VWS V14.01,2013-11-23 04:16:00,
2013-11-22 22:20:00,32.5,29.6,30.94,NE,38,2.0,10.0,89,0.00,,---,0.01,VWS V14.01,2013-11-23 04:20:00,
2013-11-22 22:21:00,32.5,29.6,30.94,North,5,5.0,7.0,89,0.00,,---,0.01,VWS V14.01,2013-11-23 04:21:00,
2013-11-22 22:26:00,32.5,29.6,30.94,North,5,7.0,11.0,89,0.00,,---,0.01,VWS V14.01,2013-11-23 04:26:00,
2013-11-22 22:30:00,32.4,29.5,30.95,North,5,6.0,11.0,89,0.00,,---,0.01,VWS V14.01,2013-11-23 04:30:00,
2013-11-22 22:31:00,32.4,29.5,30.95,NE,55,3.0,9.0,89,0.00,,---,0.01,VWS V14.01,2013-11-23 04:31:00,
2013-11-22 22:36:00,32.4,29.5,30.95,NNE,32,5.0,11.0,89,0.00,,---,0.01,VWS V14.01,2013-11-23 04:36:00,
2013-11-22 22:40:00,32.2,29.3,30.95,NNW,346,6.0,11.0,89,0.01,,---,0.02,VWS V14.01,2013-11-23 04:40:00,
2013-11-22 22:41:00,32.2,29.3,30.95,NE,52,6.0,14.0,89,0.01,,---,0.02,VWS V14.01,2013-11-23 04:41:00,
2013-11-22 22:46:00,32.2,29.3,30.95,NNE,14,4.0,14.0,89,0.01,,---,0.02,VWS V14.01,2013-11-23 04:46:00,
2013-11-22 22:50:00,32.2,29.3,30.95,North,355,7.0,14.0,89,0.01,,---,0.02,VWS V14.01,2013-11-23 04:50:00,
2013-11-22 22:51:00,32.2,29.3,30.95,ENE,61,7.0,7.0,89,0.01,,---,0.02,VWS V14.01,2013-11-23 04:51:00,
2013-11-22 22:56:00,32.2,29.3,30.95,NNE,31,3.0,10.0,89,0.01,,---,0.02,VWS V14.01,2013-11-23 04:56:00,
2013-11-22 23:00:00,32.2,29.3,30.95,NE,36,6.0,10.0,89,0.01,,---,0.02,VWS V14.01,2013-11-23 05:00:00,
2013-11-22 23:01:00,32.2,29.3,30.95,NE,42,6.0,8.0,89,0.01,,---,0.02,VWS V14.01,2013-11-23 05:01:00,
2013-11-22 23:06:00,32.1,29.2,30.95,NNE,30,3.0,8.0,89,0.01,,---,0.02,VWS V14.01,2013-11-23 05:06:00,
2013-11-22 23:10:00,32.1,29.2,30.95,NE,36,8.0,12.0,89,0.01,,---,0.02,VWS V14.01,2013-11-23 05:10:00,
2013-11-22 23:11:00,32.1,29.2,30.95,NNE,23,4.0,12.0,89,0.01,,---,0.02,VWS V14.01,2013-11-23 05:11:00,
2013-11-22 23:16:00,32.1,29.2,30.96,NE,46,3.0,12.0,89,0.01,,---,0.02,VWS V14.01,2013-11-23 05:16:00,
2013-11-22 23:20:00,32.1,29.2,30.96,NE,34,5.0,12.0,89,0.01,,---,0.02,VWS V14.01,2013-11-23 05:20:00,
2013-11-22 23:21:00,32.1,29.2,30.96,NE,53,6.0,10.0,89,0.01,,---,0.02,VWS V14.01,2013-11-23 05:21:00,
2013-11-22 23:26:00,31.9,29.0,30.96,NE,39,11.0,13.0,89,0.01,,---,0.02,VWS V14.01,2013-11-23 05:26:00,
2013-11-22 23:30:00,31.9,29.0,30.95,NE,48,5.0,13.0,89,0.01,,---,0.02,VWS V14.01,2013-11-23 05:30:00,
2013-11-22 23:31:00,31.9,29.0,30.95,NE,51,6.0,6.0,89,0.01,,---,0.02,VWS V14.01,2013-11-23 05:31:00,
2013-11-22 23:36:00,31.9,29.0,30.95,ENE,58,6.0,11.0,89,0.01,,---,0.02,VWS V14.01,2013-11-23 05:36:00,
2013-11-22 23:40:00,31.9,29.0,30.95,NE,34,10.0,11.0,89,0.01,,---,0.02,VWS V14.01,2013-11-23 05:40:00,
2013-11-22 23:41:00,31.9,29.0,30.95,East,84,5.0,10.0,89,0.00,,---,0.02,VWS V14.01,2013-11-23 05:41:00,
2013-11-22 23:46:00,31.9,29.0,30.95,ENE,61,6.0,10.0,89,0.00,,---,0.02,VWS V14.01,2013-11-23 05:46:00,
2013-11-22 23:50:00,31.9,29.0,30.95,ENE,57,4.0,10.0,89,0.00,,---,0.02,VWS V14.01,2013-11-23 05:50:00,
2013-11-22 23:51:00,31.9,29.0,30.95,ENE,59,2.0,6.0,89,0.00,,---,0.02,VWS V14.01,2013-11-23 05:51:00,
2013-11-22 23:56:00,31.9,29.0,30.95,ENE,58,9.0,12.0,89,0.00,,---,0.02,VWS V14.01,2013-11-23 05:56:00,